Theta_e
286 282 280 283 285 284 283 281 281 283 285 284 283 283 286 288 286 287 289 287 287 290 292 292 293 293 293 293 293 295 293 294 294 292 292 293 293 294 294 296 298 298 298 298
282 278 284 286 285 284 282 280 280 283 285 283 282 282 287 289 289 290 290 289 290 289 288 292 292 292 293 293 294 294 295 294 294 294 294 293 292 293 294 296 297 298 297 297
279 281 286 285 283 282 281 280 281 281 284 284 281 280 284 289 289 290 291 291 291 291 288 290 291 292 292 292 292 294 295 295 294 295 294 293 294 293 294 295 294 296 297 297
281 283 283 280 282 283 279 283 283 282 281 276 281 275 282 288 289 289 289 289 290 290 289 291 291 291 291 293 292 294 294 294 294 295 293 292 292 291 292 293 294 294 296 295
278 279 279 280 281 283 280 284 282 281 278 277 277 275 280 285 287 289 289 288 289 289 290 289 291 292 293 292 293 293 293 293 294 294 293 292 291 292 292 292 293 293 294 294
278 282 281 280 282 282 283 281 281 280 278 272 277 278 277 284 287 287 288 289 289 288 289 289 289 290 291 292 292 291 292 292 293 293 293 292 292 292 291 291 291 291 291 291
278 277 279 282 278 281 280 278 274 272 270 273 276 276 280 286 288 288 288 288 288 288 288 288 289 289 291 292 292 292 292 292 292 292 292 292 292 291 291 290 290 289 289 289
274 273 277 280 279 277 277 278 275 270 274 277 277 276 283 288 288 288 288 289 288 288 288 288 288 289 290 292 292 292 292 291 292 292 292 292 292 291 291 290 290 289 289 289
274 277 278 280 280 280 277 275 278 274 271 272 276 279 286 288 287 287 288 287 287 288 288 288 289 289 289 292 293 293 292 292 292 292 291 291 291 291 290 290 290 289 289 290
280 274 277 278 279 279 279 280 274 273 266 267 276 277 280 284 286 286 286 286 287 287 288 288 289 289 290 292 292 291 292 293 292 291 291 291 291 291 290 289 289 289 289 289
276 278 275 276 274 275 275 274 276 277 277 273 272 277 283 286 287 286 287 287 286 287 287 288 288 289 289 289 290 292 291 291 291 291 291 291 290 290 290 289 289 289 289 288
281 276 271 273 276 277 276 277 277 273 273 275 276 277 286 286 287 287 288 289 287 287 287 287 288 288 288 289 289 290 291 291 292 291 291 290 290 289 289 288 288 288 288 288
283 276 266 272 274 275 272 277 278 278 277 272 272 277 284 285 286 286 287 288 289 289 288 288 287 288 288 288 288 288 289 290 290 290 290 289 289 288 288 288 288 288 287 287
286 281 274 276 275 272 268 271 277 275 270 276 279 279 282 284 283 285 286 288 289 290 290 288 287 288 288 289 289 289 289 289 289 289 289 289 288 288 287 287 287 287 287 286
283 277 278 280 279 276 275 270 274 276 279 276 281 280 284 287 287 288 288 288 289 289 288 288 288 289 289 288 288 288 288 288 289 289 289 288 288 287 287 286 286 286 286 286
281 276 277 275 280 280 279 278 275 278 279 279 281 279 284 286 286 286 288 288 288 288 289 289 290 290 289 289 289 288 288 287 288 288 288 287 287 287 286 285 285 285 285 285
278 277 277 277 280 278 274 278 279 277 278 281 277 283 285 285 286 288 290 291 291 288 289 290 290 290 290 289 289 287 286 286 287 287 286 287 287 285 284 285 284 284 284 283
279 278 280 277 277 271 281 284 283 282 283 284 284 286 288 289 289 290 292 291 292 292 291 289 291 290 289 288 287 286 285 286 286 285 285 285 285 284 283 282 282 280 280 281
285 283 278 275 275 279 281 282 279 277 280 284 284 285 287 288 288 288 291 292 293 293 293 292 292 291 289 287 286 285 284 285 285 285 285 285 285 283 282 282 280 278 283 281
284 285 280 278 273 270 279 285 287 281 279 275 280 286 286 285 280 286 289 291 291 291 291 291 289 287 287 285 284 284 284 284 284 284 285 284 284 283 282 281 280 281 283 282
277 279 276 276 274 277 279 280 284 273 276 276 276 276 277 280 282 285 288 289 288 288 287 287 286 286 286 284 284 284 283 284 286 283 283 283 283 283 282 280 278 283 283 281
276 275 275 276 274 272 275 277 274 275 276 275 275 275 276 277 279 280 282 284 286 285 285 285 284 284 283 282 284 283 283 284 281 282 282 282 282 283 282 281 280 283 282 280
273 275 273 272 272 277 277 275 277 276 275 274 274 274 274 275 275 276 276 278 282 284 284 283 283 281 277 278 282 283 283 281 280 281 281 281 281 282 282 281 282 282 282 280
275 278 272 273 278 276 276 276 276 276 274 274 273 273 273 273 275 274 274 276 277 278 280 283 282 281 280 278 280 280 281 281 281 282 280 279 280 280 280 281 282 283 282 281
271 273 272 274 276 277 274 271 270 272 272 271 271 271 272 274 273 272 273 274 274 275 276 277 279 281 282 281 279 277 280 281 281 280 280 280 280 280 281 282 283 283 283 282
272 268 269 269 272 272 274 270 268 268 267 268 267 267 270 272 271 270 270 272 272 271 273 273 273 274 277 281 282 281 281 281 281 280 279 280 280 280 281 281 282 285 285 285
Wind_Speed
2 4 8 10 7 1 3 3 5 4 3 4 9 14 19 13 9 14 16 13 14 17 14 14 13 13 11 10 12 13 11 9 6 3 3 1 3 2 1 2 3 1 2 2
3 8 5 4 2 4 3 3 6 2 3 3 7 15 20 18 15 18 18 17 17 10 11 16 15 15 15 15 14 13 13 9 7 5 3 3 3 2 2 2 2 3 3 1
7 3 4 4 4 4 4 5 4 3 3 5 6 11 9 7 13 14 13 13 17 16 13 16 17 18 13 15 14 14 12 11 8 7 4 3 3 1 0 1 1 2 2 1
6 3 4 3 4 7 4 3 2 1 1 5 2 9 7 10 8 6 10 12 12 15 9 14 18 16 16 14 12 12 12 10 9 9 6 6 5 4 3 3 3 2 1 2
6 6 4 4 5 6 6 2 3 2 2 3 3 3 11 5 9 8 9 8 8 9 10 11 16 18 16 13 13 12 10 8 8 9 8 6 5 4 3 2 2 2 1 1
0 1 2 3 3 2 6 4 4 3 2 3 8 8 6 6 5 2 1 6 8 8 7 6 8 9 11 11 11 9 11 9 10 9 8 9 8 6 4 3 3 2 0 2
1 4 1 3 5 5 1 5 1 4 2 8 1 4 8 11 6 4 6 4 6 6 7 7 8 9 12 13 10 9 10 10 10 10 8 9 8 7 7 5 4 3 1 1
7 6 9 6 5 6 6 5 7 9 5 4 3 9 9 8 4 2 5 7 6 6 6 7 9 8 11 12 10 10 11 10 11 9 9 7 7 5 4 5 4 3 2 2
6 3 1 2 1 4 6 6 2 5 2 4 6 8 11 7 6 6 9 8 9 8 8 8 8 8 9 12 15 16 14 11 11 11 8 7 7 7 6 6 5 3 3 2
5 1 1 2 1 2 3 1 2 3 3 5 6 6 8 5 8 7 7 10 9 8 8 8 8 9 9 9 9 8 10 14 10 9 8 7 8 7 6 6 6 5 3 2
4 6 1 4 8 10 4 3 2 2 5 6 2 8 8 9 8 10 11 8 10 10 9 8 8 8 8 5 8 11 9 10 9 10 9 9 7 7 6 5 5 5 4 3
8 6 6 11 1 1 2 7 6 6 6 4 3 11 4 4 5 6 6 7 7 7 9 9 9 9 8 9 8 11 10 11 11 10 10 8 7 7 6 6 6 6 5 3
5 4 2 7 6 5 5 7 5 3 3 9 6 8 1 2 1 2 3 3 4 7 8 7 7 8 9 9 8 9 9 11 9 9 9 8 8 8 7 7 6 6 5 4
5 2 8 12 8 7 5 7 9 7 5 5 20 4 1 4 1 2 3 4 7 7 9 8 8 9 9 10 11 11 10 10 10 10 10 10 10 9 7 6 6 6 5 5
6 6 7 14 1 3 7 6 13 18 22 11 18 14 14 13 10 8 9 8 8 10 10 10 10 11 11 9 9 9 9 11 11 11 11 11 8 7 7 7 6 6 6 5
5 7 5 12 9 9 5 9 14 18 11 22 21 19 3 5 5 6 10 9 11 12 13 13 13 14 13 13 12 10 10 11 12 12 12 8 8 8 7 7 6 6 5 5
9 4 7 17 5 4 3 26 12 9 10 15 18 24 7 8 14 19 22 15 15 13 14 15 16 16 13 12 11 12 11 9 12 11 9 10 9 9 8 7 6 6 6 4
10 9 4 7 5 13 11 9 20 23 22 19 20 24 21 18 14 22 18 14 19 17 13 12 13 12 11 8 9 7 9 12 12 11 11 10 10 9 7 7 6 5 4 4
12 9 7 9 14 10 8 7 8 10 13 15 21 23 21 17 11 27 14 17 18 16 12 15 14 14 9 10 9 9 9 10 11 11 11 11 11 10 9 9 7 4 5 6
17 17 12 8 8 11 9 12 11 6 13 14 19 15 13 3 7 20 4 11 15 11 10 10 8 6 8 8 10 12 11 12 13 12 13 11 11 11 11 9 8 5 5 7
10 11 21 18 15 8 9 14 1 7 4 14 14 14 14 6 8 19 21 12 6 5 8 7 6 8 10 9 11 12 11 15 13 8 9 10 10 10 9 7 4 7 6 6
5 5 8 9 12 13 15 4 3 7 7 8 12 14 17 13 15 17 18 21 19 14 11 8 5 6 3 7 11 10 14 9 7 9 10 11 11 8 8 10 7 7 7 7
1 3 4 7 5 4 7 13 6 3 5 8 10 12 14 16 16 17 18 19 21 20 14 6 6 5 4 1 3 9 6 8 9 9 10 9 9 9 9 11 10 9 9 6
1 3 2 6 3 3 8 9 4 4 6 8 10 9 10 13 16 17 16 15 15 17 19 19 10 6 6 3 3 1 6 4 7 9 9 8 9 9 9 7 7 8 8 7
4 2 1 4 0 1 9 9 7 8 9 12 12 11 13 13 14 15 14 16 15 15 16 17 17 14 10 6 5 2 4 7 6 5 6 8 8 10 9 9 9 9 9 9
2 4 2 6 2 2 2 9 10 8 11 12 13 16 15 12 13 14 15 15 15 17 16 14 16 16 16 14 10 7 6 8 8 7 7 7 7 7 7 8 7 17 14 14
Wind_Direction
185 130 210 208 216 336 107 215 244 257 198 209 231 259 269 262 242 246 236 223 220 216 208 199 188 181 175 175 173 175 167 176 152 140 137 165 195 191 196 174 204 187 110 92
70 226 195 127 161 204 209 248 263 260 180 204 281 267 268 260 240 229 225 223 223 210 191 196 189 182 182 182 178 173 176 169 173 148 161 150 155 208 182 196 248 163 141 75
173 199 136 167 170 175 216 201 236 249 301 232 317 282 259 270 240 243 227 218 216 212 196 195 189 191 175 179 176 175 175 172 170 162 130 101 74 20 331 227 185 185 137 224
229 181 176 165 203 156 224 183 178 252 21 247 180 284 287 277 264 226 231 217 209 207 193 188 189 187 185 185 171 169 171 171 169 163 157 161 175 182 202 172 175 199 180 261
235 160 173 176 211 174 217 136 135 137 201 350 243 266 270 253 263 243 234 227 224 201 185 180 187 185 186 167 173 173 169 165 161 171 169 169 182 197 187 169 200 217 288 274
194 336 211 192 83 15 144 99 59 51 83 320 218 192 252 224 240 310 354 211 213 199 182 167 169 151 163 161 167 168 164 172 166 171 174 176 189 195 185 202 223 244 226 312
172 215 159 144 90 4 162 102 338 346 6 227 307 175 259 272 255 229 211 183 175 164 155 162 144 156 163 169 171 172 167 174 172 175 179 183 189 195 198 199 204 193 191 285
168 292 169 183 192 182 188 178 167 203 200 247 20 233 253 242 263 212 173 163 153 166 175 176 172 163 167 173 169 171 174 174 178 178 187 183 185 189 194 193 191 181 178 221
138 264 49 46 17 134 191 205 250 100 53 53 224 274 295 225 193 167 168 162 179 182 185 183 177 174 166 172 185 184 179 183 183 186 174 180 181 183 193 195 181 176 180 194
209 55 7 328 291 247 187 208 107 352 156 249 271 260 235 231 215 216 220 207 200 182 180 183 186 188 188 187 181 176 182 187 185 175 176 178 184 186 191 183 189 183 186 191
138 123 322 46 204 184 161 211 187 138 169 183 262 258 227 228 222 205 226 216 201 191 189 192 193 197 196 172 179 192 186 184 181 177 170 171 181 182 186 189 188 185 172 199
208 148 177 205 198 25 233 202 169 137 234 234 170 258 256 222 194 191 228 220 202 183 192 201 194 188 189 200 193 197 194 190 192 180 169 173 163 176 185 192 191 180 185 207
193 228 72 341 354 348 203 201 203 128 79 216 150 263 18 350 7 74 153 120 173 193 201 211 204 203 202 206 199 199 193 195 177 165 166 164 177 181 191 194 184 175 180 214
129 238 185 219 196 138 191 210 198 147 167 180 231 251 345 187 195 169 204 238 220 205 201 204 210 212 209 210 205 201 198 184 169 169 172 176 186 185 184 184 176 176 183 206
107 244 304 287 271 151 196 180 189 206 220 196 252 218 230 262 276 263 222 221 218 219 223 217 212 216 219 215 212 204 196 179 172 174 176 187 177 172 175 178 176 182 185 207
169 210 129 270 257 221 239 240 217 217 231 245 257 262 11 247 267 294 271 237 226 223 220 221 219 220 222 215 210 197 193 179 170 176 183 166 166 169 177 177 179 180 194 212
160 193 180 252 167 115 260 236 219 214 210 218 235 250 219 240 242 244 250 244 247 231 224 223 222 223 219 218 199 196 181 160 172 171 165 171 170 176 180 173 173 185 190 199
170 190 201 267 136 222 236 189 203 214 234 227 254 260 250 250 250 253 252 254 254 246 236 227 228 226 218 208 190 160 159 166 167 172 173 169 171 176 170 168 174 174 167 197
214 212 229 225 225 258 284 239 180 162 248 222 229 246 252 252 268 266 246 242 252 251 234 228 226 225 204 190 176 159 157 162 168 178 178 178 174 173 172 181 178 176 182 209
203 217 222 227 237 249 246 255 217 123 250 21 348 266 277 212 225 265 252 244 255 267 266 255 236 208 189 190 158 158 170 172 188 182 184 174 172 174 182 180 175 170 191 214
211 219 228 237 247 253 355 334 10 173 315 355 358 348 348 342 333 339 342 326 334 313 307 305 254 212 203 164 158 170 165 195 194 161 158 168 175 178 172 160 151 173 194 218
214 216 212 219 238 234 347 46 12 10 19 13 9 1 350 333 329 351 349 342 343 335 333 328 282 268 202 160 162 164 187 183 145 152 165 175 174 167 163 165 163 186 198 210
205 356 315 25 24 83 61 84 90 10 341 351 354 0 347 344 346 349 347 346 346 343 334 334 323 306 316 285 160 177 194 151 148 158 176 176 167 169 168 169 178 191 201 202
29 115 21 0 160 77 129 107 56 32 3 346 344 341 350 344 345 346 343 342 343 346 350 345 319 309 286 239 237 157 146 149 163 179 176 164 173 173 173 180 180 195 198 201
201 8 123 237 168 34 142 72 27 6 0 348 341 343 345 341 343 341 335 340 342 342 346 349 349 345 332 328 292 263 191 161 177 176 176 181 184 184 184 195 191 202 211 194
160 206 225 277 28 249 317 16 34 16 354 339 334 335 338 335 334 338 333 335 339 335 334 346 342 339 332 330 307 276 216 187 170 182 183 186 183 189 192 191 204 224 226 218